Courtland, AL

4:09 AM CDT on August 23, 2017 (GMT -0500)
Courtland

Weather History for K9A4 - April, 2013

Change the Weather History Date:

Sunday, April 14, 2013

  Actual Average (KMSL) Record (KMSL)
Temperature  
Mean Temperature 53 °F -  
Max Temperature 62 °F 71 °F 89 °F (1936)
Min Temperature 44 °F 51 °F 26 °F (1907)
Degree Days  
Heating Degree Days 12    
Growing Degree Days 3 (Base 50)    
Moisture  
Dew Point 48 °F    
Average Humidity 76    
Maximum Humidity 100    
Minimum Humidity 52    
Precipitation  
Precipitation 0.00 in - - ()
Sea Level Pressure  
Sea Level Pressure 29.94 in    
Wind  
Wind Speed 4 mph (SSE)    
Max Wind Speed 20 mph    
Max Gust Speed 36 mph    
Visibility 10 miles    
Events      
Averages and records for this station are not official NWS values.
T = Trace of Precipitation, MM = Missing Value Source: NWS Daily Summary

Daily Weather History Graph

Daily Weather History Graph

Search for Another Location

Airport or City:

Trip Planner

Search our weather history database for the weather conditions in past years. The results will help you decide how hot, cold, wet, or windy it might be!

Date:

Astronomy

Apr. 14, 2013 Rise Set
Actual Time 6:18 AM CDT 7:20 PM CDT
Civil Twilight 5:52 AM CDT 7:46 PM CDT
Nautical Twilight 5:22 AM CDT 8:17 PM CDT
Astronomical Twilight 4:50 AM CDT 8:49 PM CDT
Moon 9:02 AM CDT (4/14) 11:26 PM CDT (4/14)
Length of Visible Light 13h 54m
Length of Day
13h 02m
Waxing Crescent, 17% of the Moon is Illuminated
Apr 14
Waxing Crescent
Apr 18
First Quarter
Apr 25
Full
May 2
Last Quarter
May 9
New

Hourly Weather History & Observations

Time (CDT) Temp. Dew Point Humidity Pressure Visibility Wind Dir Wind Speed Gust Speed Precip Events Conditions
12:15 AM 48.2 °F 46.4 °F 93% 30.01 in 10.0 mi Calm Calm - N/A   Clear
12:35 AM 50.0 °F 46.4 °F 87% 30.00 in 10.0 mi Calm Calm - N/A   Clear
12:55 AM 46.4 °F 46.4 °F 100% 30.00 in 10.0 mi Calm Calm - N/A   Clear
1:15 AM 48.2 °F 46.4 °F 93% 29.99 in 10.0 mi Calm Calm - N/A   Clear
1:35 AM 46.4 °F 46.4 °F 100% 29.98 in 10.0 mi Calm Calm - N/A   Clear
1:55 AM 46.4 °F 44.6 °F 93% 29.98 in 10.0 mi Calm Calm - N/A   Clear
2:15 AM 46.4 °F 44.6 °F 93% 29.97 in 10.0 mi Calm Calm - N/A   Clear
2:35 AM 46.4 °F 44.6 °F 93% 29.96 in 10.0 mi Calm Calm - N/A   Clear
2:55 AM 44.6 °F 44.6 °F 100% 29.96 in 10.0 mi Calm Calm - N/A   Clear
3:15 AM 44.6 °F 44.6 °F 100% 29.96 in 10.0 mi Calm Calm - N/A   Clear
3:35 AM 44.6 °F 44.6 °F 100% 29.95 in 10.0 mi Calm Calm - N/A   Clear
3:55 AM 46.4 °F 44.6 °F 93% 29.95 in 10.0 mi Calm Calm - N/A   Clear
4:35 AM 46.4 °F 46.4 °F 100% 29.96 in 10.0 mi Calm Calm - N/A   Clear
4:55 AM 46.4 °F 46.4 °F 100% 29.96 in 10.0 mi Calm Calm - N/A   Clear
5:15 AM 48.2 °F 46.4 °F 93% 29.97 in 10.0 mi Calm Calm - N/A   Clear
5:35 AM 48.2 °F 46.4 °F 93% 29.95 in 10.0 mi Calm Calm - N/A   Clear
5:55 AM 50.0 °F 48.2 °F 94% 29.95 in 10.0 mi Calm Calm - N/A   Clear
6:15 AM 50.0 °F 50.0 °F 100% 29.95 in 10.0 mi Calm Calm - N/A   Clear
6:35 AM 51.8 °F 46.4 °F 82% 29.96 in 10.0 mi Calm Calm - N/A   Clear
6:55 AM 50.0 °F 46.4 °F 87% 29.97 in 10.0 mi Calm Calm - N/A   Clear
7:15 AM 51.8 °F 46.4 °F 82% 29.96 in 10.0 mi Calm Calm - N/A   Clear
7:35 AM 51.8 °F 46.4 °F 82% 29.95 in 10.0 mi Calm Calm - N/A   Clear
7:55 AM 51.8 °F 46.4 °F 82% 29.97 in 10.0 mi Calm Calm - N/A   Clear
8:15 AM 53.6 °F 50.0 °F 88% 29.97 in 10.0 mi Calm Calm - N/A   Clear
8:35 AM 53.6 °F 46.4 °F 77% 29.97 in 10.0 mi Calm Calm - N/A   Clear
8:55 AM 55.4 °F 48.2 °F 77% 29.96 in 10.0 mi East 3.5 mph - N/A   Clear
9:15 AM 57.2 °F 46.4 °F 67% 29.97 in 10.0 mi SE 3.5 mph - N/A   Clear
9:35 AM 59.0 °F 44.6 °F 59% 29.97 in 10.0 mi SSE 4.6 mph - N/A   Clear
9:55 AM 60.8 °F 44.6 °F 55% 29.98 in 10.0 mi South 8.1 mph - N/A   Clear
10:15 AM 60.8 °F 44.6 °F 55% 29.98 in 10.0 mi SSE 9.2 mph - N/A   Clear
10:35 AM 60.8 °F 44.6 °F 55% 29.97 in 10.0 mi South 10.4 mph - N/A   Scattered Clouds
10:55 AM 62.6 °F 44.6 °F 52% 29.97 in 10.0 mi South 12.7 mph 21.9 mph N/A   Clear
11:15 AM 60.8 °F 44.6 °F 55% 29.96 in 10.0 mi South 17.3 mph 26.5 mph N/A   Clear
11:35 AM 60.8 °F 46.4 °F 59% 29.96 in 10.0 mi South 13.8 mph 29.9 mph N/A   Mostly Cloudy
11:55 AM 60.8 °F 46.4 °F 59% 29.97 in 10.0 mi South 17.3 mph 23.0 mph N/A   Overcast
12:15 PM 60.8 °F 48.2 °F 63% 29.97 in 10.0 mi South 15.0 mph 26.5 mph N/A   Overcast
12:35 PM 59.0 °F 48.2 °F 67% 29.97 in 10.0 mi South 12.7 mph 21.9 mph N/A   Overcast
12:55 PM 59.0 °F 50.0 °F 72% 29.95 in 10.0 mi South 13.8 mph 21.9 mph N/A   Overcast
1:15 PM 59.0 °F 50.0 °F 72% 29.94 in 10.0 mi SSE 10.4 mph 19.6 mph N/A   Overcast
1:35 PM 60.8 °F 50.0 °F 68% 29.94 in 10.0 mi SSE 15.0 mph 21.9 mph N/A   Overcast
1:55 PM 60.8 °F 50.0 °F 68% 29.91 in 10.0 mi SSE 18.4 mph 25.3 mph N/A   Scattered Clouds
2:15 PM 60.8 °F 50.0 °F 68% 29.89 in 10.0 mi SE 19.6 mph 35.7 mph N/A   Clear
2:35 PM 60.8 °F 50.0 °F 68% 29.92 in 10.0 mi SSE 11.5 mph 16.1 mph N/A   Scattered Clouds
2:55 PM 60.8 °F 50.0 °F 68% 29.94 in 10.0 mi South 10.4 mph - N/A   Overcast
3:15 PM 60.8 °F 50.0 °F 68% 29.95 in 10.0 mi South 5.8 mph - N/A   Overcast
3:35 PM 60.8 °F 50.0 °F 68% 29.88 in 10.0 mi ESE 15.0 mph - N/A   Overcast
3:55 PM 62.6 °F 50.0 °F 63% 29.90 in 10.0 mi ESE 11.5 mph - N/A   Overcast
4:15 PM 62.6 °F 50.0 °F 63% 29.90 in 10.0 mi SSE 15.0 mph 18.4 mph N/A   Overcast
4:35 PM 62.6 °F 50.0 °F 63% 29.88 in 10.0 mi SE 11.5 mph 23.0 mph N/A   Overcast
4:55 PM 62.6 °F 50.0 °F 63% 29.87 in 10.0 mi SSE 18.4 mph 24.2 mph N/A   Mostly Cloudy
5:15 PM 62.6 °F 50.0 °F 63% 29.86 in 10.0 mi SE 15.0 mph 21.9 mph N/A   Mostly Cloudy
5:35 PM 62.6 °F 50.0 °F 63% 29.86 in 10.0 mi SE 18.4 mph 29.9 mph N/A   Mostly Cloudy
5:55 PM 60.8 °F 50.0 °F 68% 29.87 in 10.0 mi SE 10.4 mph - N/A   Overcast
6:15 PM 60.8 °F 50.0 °F 68% 29.87 in 10.0 mi SE 12.7 mph - N/A   Overcast
6:35 PM 60.8 °F 50.0 °F 68% 29.88 in 10.0 mi SE 10.4 mph - N/A   Overcast
6:55 PM 60.8 °F 50.0 °F 68% 29.88 in 10.0 mi SE 10.4 mph - N/A   Overcast
7:15 PM 59.0 °F 50.0 °F 72% 29.88 in 10.0 mi SSE 9.2 mph - N/A   Overcast
7:35 PM 59.0 °F 50.0 °F 72% 29.88 in 10.0 mi SE 9.2 mph 16.1 mph N/A   Overcast
7:55 PM 59.0 °F 50.0 °F 72% 29.90 in 10.0 mi SSE 9.2 mph - N/A   Overcast
8:15 PM 59.0 °F 51.8 °F 77% 29.88 in 10.0 mi SE 9.2 mph - N/A   Overcast
8:35 PM 59.0 °F 50.0 °F 72% 29.88 in 10.0 mi SE 9.2 mph 17.3 mph N/A   Overcast
8:55 PM 59.0 °F 50.0 °F 72% 29.89 in 10.0 mi SE 12.7 mph - N/A   Overcast
9:15 PM 59.0 °F 50.0 °F 72% 29.90 in 10.0 mi SE 9.2 mph - N/A   Overcast
9:35 PM 59.0 °F 50.0 °F 72% 29.90 in 10.0 mi SE 6.9 mph - N/A   Overcast
9:55 PM 59.0 °F 50.0 °F 72% 29.91 in 10.0 mi SE 5.8 mph - N/A   Overcast
10:15 PM 59.0 °F 50.0 °F 72% 29.91 in 10.0 mi SE 6.9 mph - N/A   Overcast
10:35 PM 59.0 °F 50.0 °F 72% 29.91 in 10.0 mi SE 5.8 mph - N/A   Overcast
10:55 PM 59.0 °F 50.0 °F 72% 29.91 in 10.0 mi SE 5.8 mph - N/A   Overcast
11:15 PM 57.2 °F 50.0 °F 77% 29.91 in 10.0 mi SE 5.8 mph - N/A   Overcast
11:35 PM 57.2 °F 51.8 °F 82% 29.91 in 10.0 mi SE 5.8 mph - N/A   Overcast
11:55 PM 57.2 °F 51.8 °F 82% 29.91 in 10.0 mi SE 4.6 mph - N/A   Overcast